Location: Cuzcurrita-R�o Tir�n
(42.5415°N, 2.9642°W)
Time: 21:51:43
(UTC+00:00)

Cosmos 773 Rocket - Pass Details

Date: 17 January 2021
Orbit: 746 x 776 km, 74.1° (Epoch: 03 March)

Event Time Altitude Azimuth Distance (km) Brightness Sun altitude
Rises 18:31:43 0° 340° (NNW) 3,213 7.3 -15.5°
Reaches altitude 10° 18:34:05 10° 341° (NNW) 2,280 6.5 -15.9°
Maximum altitude 18:39:16 83° 69° (ENE) 759 3.8 -16.8°
Drops below altitude 10° 18:44:23 10° 159° (SSE) 2,255 6.3 -17.7°
Sets 18:46:43 0° 160° (SSE) 3,175 7.1 -18.2°
